| time (UTC) | temp C | wind direction | speed KPH | gust KPH | rain 1hr cm | rain 24hr cm | rain mn cm | humidity % | barometer mb |
| 20260505140547 | 2 | 30 | 1.6 | 6.4 | 0.05 | 0.71 | 0.30 | 95 | 1014.8 |
| 20260505140522 | 2 | 30 | 1.6 | 6.4 | 0.05 | 0.71 | 0.30 | 95 | 1009.0 |
| 20260505140124 | 2 | 21 | 1.6 | 8.0 | 0.03 | 0.69 | 0.28 | 95 | 1008.9 |
| 20260505130110 | 2 | 288 | 3.2 | 12.9 | 0.05 | 0.66 | 0.25 | 94 | 1008.1 |
| 20260505125031 | 2 | 28 | 3.2 | 16.1 | 0.05 | 0.66 | 0.25 | 93 | 1013.6 |
| 20260505124631 | 2 | 292 | 3.2 | 16.1 | 0.05 | 0.66 | 0.25 | 94 | 1007.3 |
| 20260505124536 | 2 | 38 | 3.2 | 8.0 | 0.05 | 0.66 | 0.25 | 94 | 1013.5 |
| 20260505124139 | 2 | 30 | 3.2 | 12.9 | 0.05 | 0.66 | 0.25 | 93 | 1007.3 |
| 20260505124043 | 2 | 327 | 4.8 | 12.9 | 0.05 | 0.66 | 0.25 | 93 | 1013.5 |
| 20260505123556 | 2 | 315 | 4.8 | 12.9 | 0.08 | 0.66 | 0.25 | 93 | 1007.1 |
| 20260505123540 | 2 | 345 | 6.4 | 12.9 | 0.08 | 0.66 | 0.25 | 93 | 1013.4 |
| 20260505123121 | 2 | 302 | 3.2 | 9.7 | 0.08 | 0.64 | 0.23 | 93 | 1007.0 |
| 20260505123038 | 2 | 309 | 4.8 | 9.7 | 0.08 | 0.64 | 0.23 | 93 | 1013.3 |
| 20260505122559 | 2 | 45 | 4.8 | 9.7 | 0.08 | 0.64 | 0.23 | 92 | 1007.1 |
| 20260505122533 | 3 | 15 | 6.4 | 11.3 | 0.08 | 0.64 | 0.23 | 92 | 1013.4 |
| 20260505122130 | 3 | 340 | 3.2 | 9.7 | 0.08 | 0.64 | 0.23 | 93 | 1007.0 |
| 20260505122055 | 3 | 23 | 3.2 | 9.7 | 0.10 | 0.64 | 0.23 | 93 | 1013.3 |
| 20260505121630 | 3 | 34 | 3.2 | 9.7 | 0.10 | 0.64 | 0.23 | 93 | 1006.9 |
| 20260505121530 | 3 | 30 | 3.2 | 9.7 | 0.10 | 0.64 | 0.23 | 93 | 1013.2 |
| 20260505121111 | 3 | 43 | 4.8 | 9.7 | 0.10 | 0.64 | 0.23 | 93 | 1006.8 |
| 20260505121032 | 3 | 42 | 4.8 | 9.7 | 0.10 | 0.64 | 0.23 | 94 | 1013.1 |
| 20260505120618 | 3 | 22 | 3.2 | 17.7 | 0.10 | 0.64 | 0.23 | 93 | 1006.6 |
| 20260505120528 | 3 | 42 | 3.2 | 17.7 | 0.10 | 0.64 | 0.23 | 93 | 1013.0 |
| 20260505120054 | 3 | 11 | 8.0 | 17.7 | 0.08 | 0.61 | 0.20 | 93 | 1013.0 |
| 20260505120052 | 3 | 25 | 8.0 | 17.7 | 0.08 | 0.61 | 0.20 | 93 | 1006.6 |
| 20260505115628 | 3 | 9 | 4.8 | 17.7 | 0.08 | 0.61 | 0.20 | 93 | 1006.5 |
| 20260505115550 | 3 | 327 | 4.8 | 17.7 | 0.08 | 0.61 | 0.20 | 93 | 1012.9 |
| 20260505115059 | 3 | 346 | 6.4 | 17.7 | 0.08 | 0.61 | 0.20 | 93 | 1006.4 |
| 20260505115028 | 3 | 32 | 8.0 | 19.3 | 0.08 | 0.61 | 0.20 | 92 | 1012.8 |
| 20260505114624 | 3 | 23 | 6.4 | 19.3 | 0.08 | 0.61 | 0.20 | 93 | 1006.2 |
| 20260505114552 | 3 | 15 | 8.0 | 19.3 | 0.08 | 0.61 | 0.20 | 93 | 1012.7 |
| 20260505114048 | 3 | 45 | 6.4 | 19.3 | 0.05 | 0.58 | 0.18 | 93 | 1012.6 |
| 20260505114016 | 3 | 36 | 6.4 | 19.3 | 0.05 | 0.58 | 0.18 | 93 | 1006.1 |
| 20260505113619 | 3 | 309 | 6.4 | 11.3 | 0.05 | 0.58 | 0.18 | 93 | 1006.2 |
| 20260505113541 | 4 | 30 | 6.4 | 11.3 | 0.05 | 0.58 | 0.18 | 93 | 1012.5 |
| 20260505113057 | 3 | 344 | 4.8 | 17.7 | 0.03 | 0.56 | 0.15 | 93 | 1006.1 |
| 20260505113038 | 4 | 17 | 4.8 | 17.7 | 0.03 | 0.56 | 0.15 | 93 | 1012.5 |
| 20260505112633 | 3 | 290 | 4.8 | 17.7 | 0.05 | 0.56 | 0.15 | 93 | 1006.0 |
| 20260505112605 | 4 | 32 | 6.4 | 17.7 | 0.05 | 0.56 | 0.15 | 93 | 1012.5 |
| 20260505112148 | 3 | 30 | 3.2 | 20.9 | 0.03 | 0.53 | 0.15 | 93 | 1006.0 |
| 20260505112113 | 4 | 22 | 6.4 | 20.9 | 0.03 | 0.53 | 0.13 | 93 | 1012.4 |
| 20260505111606 | 4 | 5 | 6.4 | 20.9 | 0.03 | 0.53 | 0.13 | 93 | 1005.9 |
| 20260505111549 | 4 | 333 | 8.0 | 20.9 | 0.05 | 0.53 | 0.13 | 93 | 1012.4 |
| 20260505111128 | 4 | 15 | 4.8 | 14.5 | 0.05 | 0.53 | 0.13 | 93 | 1005.8 |
| 20260505111045 | 4 | 26 | 4.8 | 14.5 | 0.05 | 0.53 | 0.13 | 93 | 1012.4 |
| 20260505110602 | 4 | 5 | 3.2 | 14.5 | 0.05 | 0.53 | 0.13 | 93 | 1005.7 |
| 20260505110541 | 4 | 355 | 6.4 | 14.5 | 0.05 | 0.53 | 0.13 | 93 | 1012.2 |
| 20260505110136 | 4 | 27 | 6.4 | 12.9 | 0.08 | 0.53 | 0.13 | 93 | 1005.6 |
| 20260505110111 | 4 | 360 | 6.4 | 14.5 | 0.08 | 0.53 | 0.13 | 93 | 1012.0 |
| 20260505102117 | 5 | 16 | 6.4 | 14.5 | 0.10 | 0.51 | 0.10 | 93 | 1004.6 |
| 20260505102047 | 6 | 56 | 6.4 | 14.5 | 0.10 | 0.51 | 0.10 | 93 | 1011.3 |
| 20260505101541 | 6 | 9 | 4.8 | 14.5 | 0.08 | 0.48 | 0.08 | 93 | 1011.2 |
| 20260505101506 | 6 | 261 | 3.2 | 12.9 | 0.08 | 0.48 | 0.08 | 93 | 1004.5 |
| 20260505101114 | 6 | 28 | 3.2 | 12.9 | 0.08 | 0.48 | 0.08 | 94 | 1004.6 |
| 20260505101035 | 6 | 17 | 4.8 | 12.9 | 0.08 | 0.48 | 0.08 | 94 | 1011.3 |
| 20260505100647 | 6 | 26 | 1.6 | 8.0 | 0.08 | 0.48 | 0.08 | 94 | 1004.6 |
| 20260505100604 | 6 | 9 | 3.2 | 8.0 | 0.08 | 0.48 | 0.08 | 94 | 1011.2 |
| 20260505100105 | 6 | 24 | 3.2 | 8.0 | 0.05 | 0.46 | 0.05 | 94 | 1004.4 |
| 20260505100036 | 6 | 309 | 4.8 | 8.0 | 0.05 | 0.46 | 0.05 | 94 | 1011.1 |
| 20260505095635 | 6 | 296 | 3.2 | 9.7 | 0.05 | 0.46 | 0.05 | 93 | 1004.2 |
| 20260505095559 | 6 | 292 | 3.2 | 9.7 | 0.05 | 0.46 | 0.05 | 93 | 1010.9 |
| 20260505095034 | 6 | 38 | 4.8 | 9.7 | 0.03 | 0.43 | 0.03 | 93 | 1011.1 |
| 20260505095008 | 6 | 15 | 4.8 | 9.7 | 0.03 | 0.43 | 0.03 | 93 | 1004.3 |
| 20260505094609 | 6 | 293 | 3.2 | 11.3 | 0.03 | 0.43 | 0.03 | 93 | 1004.3 |
| 20260505094530 | 6 | 279 | 4.8 | 11.3 | 0.03 | 0.43 | 0.03 | 93 | 1011.1 |
| 20260505094048 | 6 | 304 | 3.2 | 12.9 | 0.00 | 0.41 | 0.00 | 92 | 1004.3 |
| 20260505094027 | 6 | 303 | 4.8 | 12.9 | 0.00 | 0.41 | 0.00 | 92 | 1011.1 |
| 20260505093615 | 6 | 5 | 3.2 | 12.9 | 0.00 | 0.41 | 0.00 | 92 | 1004.3 |
| 20260505093551 | 6 | 323 | 4.8 | 12.9 | 0.00 | 0.41 | 0.00 | 92 | 1011.1 |
| 20260505093127 | 6 | 313 | 3.2 | 9.7 | 0.00 | 0.41 | 0.00 | 92 | 1004.2 |
| 20260505093101 | 6 | 302 | 4.8 | 9.7 | 0.00 | 0.41 | 0.00 | 92 | 1011.0 |
| 20260505092546 | 7 | 340 | 3.2 | 12.9 | 0.00 | 0.41 | 0.00 | 91 | 1011.0 |
| 20260505092506 | 6 | 290 | 3.2 | 12.9 | 0.00 | 0.41 | 0.00 | 91 | 1004.1 |
| 20260505092115 | 7 | 24 | 1.6 | 12.9 | 0.00 | 0.41 | 0.00 | 91 | 1004.2 |
| 20260505092044 | 7 | 349 | 3.2 | 12.9 | 0.00 | 0.41 | 0.00 | 91 | 1011.0 |
| 20260505091638 | 7 | 20 | 4.8 | 12.9 | 0.00 | 0.41 | 0.00 | 90 | 1004.0 |
| 20260505091539 | 7 | 355 | 4.8 | 12.9 | 0.00 | 0.41 | 0.00 | 90 | 1010.7 |
| 20260505091106 | 8 | 286 | 6.4 | 12.9 | 0.00 | 0.41 | 0.00 | 90 | 1003.7 |
| 20260505091034 | 8 | 355 | 6.4 | 12.9 | 0.00 | 0.41 | 0.00 | 90 | 1010.7 |
| 20260505090641 | 8 | 336 | 1.6 | 8.0 | 0.00 | 0.41 | 0.00 | 93 | 1003.5 |
| 20260505090554 | 8 | 319 | 3.2 | 8.0 | 0.00 | 0.41 | 0.00 | 93 | 1010.5 |
| 20260505090057 | 8 | 41 | 1.6 | 8.0 | 0.00 | 0.41 | 0.00 | 93 | 1003.4 |
| 20260505090030 | 8 | 41 | 3.2 | 8.0 | 0.00 | 0.41 | 0.00 | 93 | 1010.4 |
| 20260505085628 | 8 | 355 | 0.0 | 3.2 | 0.00 | 0.41 | 0.00 | 94 | 1003.3 |
| 20260505085526 | 9 | 355 | 1.6 | 3.2 | 0.00 | 0.41 | 0.00 | 94 | 1010.3 |
| 20260505085102 | 8 | 355 | 0.0 | 3.2 | 0.00 | 0.41 | 0.00 | 94 | 1003.4 |
| 20260505085032 | 9 | 355 | 0.0 | 3.2 | 0.00 | 0.41 | 0.00 | 94 | 1010.5 |
| 20260505084632 | 8 | 355 | 0.0 | 3.2 | 0.00 | 0.41 | 0.00 | 94 | 1003.5 |
| 20260505084558 | 9 | 355 | 1.6 | 3.2 | 0.00 | 0.41 | 0.00 | 94 | 1010.5 |
| 20260505084147 | 8 | 347 | 1.6 | 3.2 | 0.00 | 0.41 | 0.00 | 94 | 1003.7 |
| 20260505084109 | 8 | 347 | 1.6 | 3.2 | 0.00 | 0.41 | 0.00 | 94 | 1010.6 |
| 20260505083605 | 8 | 238 | 0.0 | 3.2 | 0.00 | 0.41 | 0.00 | 94 | 1003.7 |
| 20260505083545 | 8 | 238 | 1.6 | 3.2 | 0.00 | 0.41 | 0.00 | 94 | 1010.7 |
| 20260505083135 | 8 | 207 | 0.0 | 1.6 | 0.00 | 0.41 | 0.00 | 94 | 1003.6 |
| 20260505083044 | 8 | 207 | 0.0 | 1.6 | 0.00 | 0.41 | 0.00 | 94 | 1010.6 |
| 20260505082612 | 8 | 165 | 0.0 | 1.6 | 0.00 | 0.41 | 0.00 | 94 | 1003.6 |
| 20260505082540 | 8 | 165 | 0.0 | 1.6 | 0.00 | 0.41 | 0.00 | 94 | 1010.7 |
| 20260505082039 | 8 | 165 | 0.0 | 1.6 | 0.00 | 0.41 | 0.00 | 94 | 1010.6 |
| 20260505082014 | 8 | 165 | 0.0 | 1.6 | 0.00 | 0.41 | 0.00 | 94 | 1003.6 |
| 20260505081620 | 8 | 165 | 0.0 | 0.0 | 0.00 | 0.41 | 0.00 | 94 | 1003.7 |
| 20260505081537 | 8 | 165 | 0.0 | 0.0 | 0.00 | 0.41 | 0.00 | 94 | 1010.8 |
| 20260505081049 | 8 | 165 | 0.0 | 0.0 | 0.00 | 0.41 | 0.00 | 94 | 1003.5 |
| 20260505081032 | 8 | 165 | 0.0 | 0.0 | 0.00 | 0.41 | 0.00 | 94 | 1010.6 |
| 20260505080613 | 8 | 165 | 0.0 | 0.0 | 0.00 | 0.41 | 0.00 | 94 | 1003.7 |
| 20260505080529 | 8 | 165 | 0.0 | 0.0 | 0.00 | 0.41 | 0.00 | 94 | 1010.7 |
| 20260505080046 | 8 | 165 | 0.0 | 0.0 | 0.00 | 0.41 | 0.00 | 93 | 1003.5 |
| 20260505080027 | 8 | 165 | 0.0 | 0.0 | 0.00 | 0.41 | 0.00 | 93 | 1010.6 |
| 20260505075616 | 8 | 165 | 0.0 | 0.0 | 0.00 | 0.41 | 0.00 | 93 | 1003.3 |
| 20260505075525 | 8 | 165 | 0.0 | 0.0 | 0.00 | 0.41 | 0.00 | 93 | 1010.5 |
| 20260505075152 | 8 | 165 | 0.0 | 0.0 | 0.00 | 0.41 | 0.00 | 93 | 1003.4 |
| 20260505075026 | 8 | 165 | 0.0 | 0.0 | 0.00 | 0.41 | 0.00 | 93 | 1010.6 |
| 20260505074608 | 8 | 165 | 0.0 | 0.0 | 0.00 | 0.41 | 0.00 | 93 | 1003.5 |
| 20260505074551 | 8 | 165 | 0.0 | 0.0 | 0.00 | 0.41 | 0.00 | 93 | 1010.6 |
| 20260505074113 | 8 | 165 | 0.0 | 0.0 | 0.00 | 0.41 | 0.00 | 93 | 1003.4 |
| 20260505074055 | 8 | 165 | 0.0 | 0.0 | 0.00 | 0.41 | 0.00 | 93 | 1010.5 |
| 20260505073617 | 8 | 165 | 0.0 | 0.0 | 0.00 | 0.41 | 0.00 | 93 | 1003.5 |
| 20260505073530 | 8 | 165 | 0.0 | 0.0 | 0.00 | 0.41 | 0.00 | 93 | 1010.7 |
| 20260505073034 | 8 | 165 | 0.0 | 1.6 | 0.00 | 0.41 | 0.00 | 93 | 1010.8 |
| 20260505073002 | 8 | 165 | 0.0 | 1.6 | 0.00 | 0.41 | 0.00 | 93 | 1003.7 |
| 20260505072615 | 8 | 165 | 0.0 | 1.6 | 0.00 | 0.41 | 0.00 | 93 | 1003.6 |
| 20260505072555 | 8 | 165 | 0.0 | 1.6 | 0.00 | 0.41 | 0.00 | 93 | 1010.8 |
| 20260505072123 | 8 | 165 | 0.0 | 3.2 | 0.00 | 0.41 | 0.00 | 93 | 1003.8 |
| 20260505072031 | 8 | 165 | 0.0 | 3.2 | 0.00 | 0.41 | 0.00 | 93 | 1010.9 |
| 20260505071603 | 8 | 165 | 0.0 | 3.2 | 0.00 | 0.41 | 0.00 | 93 | 1003.8 |
| 20260505071539 | 8 | 165 | 0.0 | 3.2 | 0.00 | 0.41 | 0.00 | 93 | 1011.1 |
| 20260505071127 | 8 | 193 | 0.0 | 3.2 | 0.00 | 0.41 | 0.00 | 93 | 1004.0 |
| 20260505071050 | 8 | 193 | 1.6 | 3.2 | 0.00 | 0.41 | 0.00 | 93 | 1011.1 |
| 20260505070549 | 8 | 194 | 0.0 | 4.8 | 0.00 | 0.41 | 0.00 | 93 | 1011.1 |
| 20260505070507 | 8 | 194 | 0.0 | 4.8 | 0.00 | 0.41 | 0.00 | 93 | 1004.0 |
| 20260505070117 | 8 | 194 | 0.0 | 4.8 | 0.00 | 0.41 | 0.00 | 93 | 1003.9 |
| 20260505070047 | 8 | 194 | 1.6 | 4.8 | 0.00 | 0.41 | 0.00 | 93 | 1011.0 |
| 20260505065631 | 8 | 176 | 0.0 | 3.2 | 0.00 | 0.41 | 0.00 | 93 | 1003.9 |
| 20260505065553 | 8 | 176 | 0.0 | 1.6 | 0.00 | 0.41 | 0.00 | 93 | 1011.0 |
| 20260505065110 | 8 | 176 | 0.0 | 3.2 | 0.00 | 0.41 | 0.00 | 93 | 1003.9 |
| 20260505065050 | 8 | 176 | 0.0 | 4.8 | 0.00 | 0.41 | 0.00 | 93 | 1011.1 |
| 20260505064631 | 8 | 176 | 0.0 | 4.8 | 0.00 | 0.41 | 0.00 | 93 | 1003.9 |
| 20260505064545 | 8 | 176 | 1.6 | 4.8 | 0.00 | 0.41 | 0.00 | 93 | 1011.1 |
| 20260505064111 | 8 | 186 | 0.0 | 4.8 | 0.00 | 0.41 | 0.00 | 93 | 1003.9 |
| 20260505064040 | 8 | 186 | 0.0 | 4.8 | 0.00 | 0.41 | 0.00 | 93 | 1011.1 |
| 20260505063643 | 8 | 192 | 0.0 | 4.8 | 0.00 | 0.41 | 0.00 | 93 | 1003.8 |
| 20260505063545 | 8 | 192 | 1.6 | 4.8 | 0.00 | 0.41 | 0.00 | 93 | 1011.1 |
| 20260505063053 | 8 | 187 | 0.0 | 3.2 | 0.00 | 0.41 | 0.00 | 93 | 1011.2 |
| 20260505063005 | 8 | 187 | 0.0 | 3.2 | 0.00 | 0.41 | 0.00 | 93 | 1003.9 |
| 20260505062609 | 8 | 187 | 0.0 | 1.6 | 0.00 | 0.41 | 0.00 | 93 | 1004.0 |
| 20260505062533 | 8 | 187 | 0.0 | 1.6 | 0.00 | 0.41 | 0.00 | 93 | 1011.2 |
| 20260505062143 | 8 | 187 | 0.0 | 1.6 | 0.00 | 0.41 | 0.00 | 93 | 1004.0 |
| 20260505062104 | 8 | 187 | 0.0 | 1.6 | 0.00 | 0.41 | 0.00 | 93 | 1011.2 |
| 20260505061600 | 8 | 187 | 0.0 | 3.2 | 0.00 | 0.41 | 0.00 | 92 | 1004.0 |
| 20260505061541 | 8 | 187 | 0.0 | 4.8 | 0.00 | 0.41 | 0.00 | 93 | 1011.2 |
| 20260505061123 | 8 | 187 | 0.0 | 4.8 | 0.00 | 0.41 | 0.00 | 92 | 1004.0 |
| 20260505061035 | 8 | 187 | 1.6 | 4.8 | 0.00 | 0.41 | 0.00 | 92 | 1011.3 |
| 20260505060601 | 8 | 176 | 0.0 | 3.2 | 0.00 | 0.41 | 0.00 | 93 | 1004.0 |
| 20260505060529 | 8 | 176 | 1.6 | 3.2 | 0.00 | 0.41 | 0.00 | 92 | 1011.3 |
| 20260505060131 | 8 | 200 | 0.0 | 3.2 | 0.00 | 0.41 | 0.00 | 93 | 1004.0 |
| 20260505060053 | 8 | 200 | 1.6 | 3.2 | 0.00 | 0.41 | 0.00 | 93 | 1011.3 |
| 20260505055603 | 8 | 225 | 0.0 | 3.2 | 0.00 | 0.41 | 0.41 | 93 | 1004.1 |
| 20260505055546 | 8 | 225 | 0.0 | 3.2 | 0.00 | 0.41 | 0.41 | 93 | 1011.4 |
| 20260505055131 | 8 | 238 | 0.0 | 3.2 | 0.00 | 0.41 | 0.41 | 93 | 1004.0 |
| 20260505055041 | 8 | 238 | 0.0 | 3.2 | 0.00 | 0.41 | 0.41 | 93 | 1011.4 |
| 20260505054629 | 8 | 238 | 0.0 | 4.8 | 0.00 | 0.41 | 0.41 | 92 | 1004.1 |
| 20260505054531 | 8 | 238 | 1.6 | 4.8 | 0.00 | 0.41 | 0.41 | 92 | 1011.6 |
| 20260505054143 | 8 | 244 | 0.0 | 4.8 | 0.00 | 0.41 | 0.41 | 92 | 1004.0 |
| 20260505054055 | 8 | 244 | 1.6 | 4.8 | 0.00 | 0.41 | 0.41 | 92 | 1011.3 |
| 20260505053559 | 8 | 166 | 0.0 | 3.2 | 0.03 | 0.41 | 0.41 | 92 | 1003.7 |
| 20260505053531 | 8 | 166 | 0.0 | 3.2 | 0.03 | 0.41 | 0.41 | 92 | 1011.1 |
| 20260505053127 | 8 | 178 | 0.0 | 4.8 | 0.03 | 0.41 | 0.41 | 92 | 1003.6 |
| 20260505053101 | 8 | 178 | 1.6 | 4.8 | 0.03 | 0.41 | 0.41 | 92 | 1011.1 |
| 20260505052634 | 8 | 152 | 0.0 | 4.8 | 0.05 | 0.41 | 0.41 | 92 | 1003.8 |
| 20260505052536 | 8 | 135 | 0.0 | 3.2 | 0.05 | 0.41 | 0.41 | 92 | 1011.3 |
| 20260505052109 | 8 | 170 | 0.0 | 4.8 | 0.05 | 0.41 | 0.41 | 92 | 1003.8 |
| 20260505052033 | 8 | 170 | 1.6 | 4.8 | 0.05 | 0.41 | 0.41 | 92 | 1011.3 |
| 20260505051531 | 8 | 170 | 1.6 | 4.8 | 0.08 | 0.41 | 0.41 | 92 | 1011.3 |
| 20260505051507 | 8 | 170 | 1.6 | 4.8 | 0.08 | 0.41 | 0.41 | 92 | 1003.8 |
| 20260505051114 | 8 | 179 | 1.6 | 3.2 | 0.08 | 0.41 | 0.41 | 92 | 1003.9 |
| 20260505051028 | 8 | 179 | 1.6 | 3.2 | 0.08 | 0.41 | 0.41 | 92 | 1011.5 |
| 20260505050550 | 8 | 207 | 0.0 | 3.2 | 0.08 | 0.41 | 0.41 | 91 | 1004.0 |
| 20260505050526 | 8 | 207 | 0.0 | 3.2 | 0.08 | 0.41 | 0.41 | 92 | 1011.6 |
| 20260505050119 | 8 | 207 | 0.0 | 3.2 | 0.10 | 0.41 | 0.41 | 92 | 1003.8 |
| 20260505041555 | 8 | 301 | 0.0 | 3.2 | 0.28 | 0.33 | 0.33 | 89 | 1004.0 |
| 20260505041527 | 8 | 301 | 0.0 | 3.2 | 0.28 | 0.33 | 0.33 | 89 | 1011.9 |
| 20260505041120 | 8 | 301 | 0.0 | 4.8 | 0.28 | 0.33 | 0.33 | 89 | 1004.0 |
| 20260505041051 | 8 | 301 | 0.0 | 4.8 | 0.28 | 0.33 | 0.33 | 89 | 1011.9 |
| 20260505040545 | 8 | 304 | 1.6 | 4.8 | 0.28 | 0.33 | 0.33 | 89 | 1011.8 |
| 20260505040512 | 8 | 304 | 0.0 | 4.8 | 0.28 | 0.33 | 0.33 | 89 | 1004.0 |
| 20260505040120 | 8 | 276 | 1.6 | 4.8 | 0.25 | 0.30 | 0.30 | 88 | 1003.9 |
| 20260505040038 | 8 | 275 | 1.6 | 4.8 | 0.25 | 0.30 | 0.30 | 88 | 1011.9 |
| 20260505035556 | 8 | 293 | 1.6 | 9.7 | 0.25 | 0.30 | 0.30 | 88 | 1003.9 |
| 20260505035533 | 9 | 292 | 1.6 | 9.7 | 0.25 | 0.30 | 0.30 | 87 | 1011.8 |
| 20260505035123 | 8 | 297 | 3.2 | 9.7 | 0.23 | 0.28 | 0.28 | 87 | 1003.9 |
| 20260505035030 | 9 | 304 | 3.2 | 9.7 | 0.23 | 0.28 | 0.28 | 87 | 1011.8 |
| 20260505034554 | 9 | 279 | 1.6 | 11.3 | 0.20 | 0.25 | 0.25 | 86 | 1011.9 |
| 20260505034510 | 9 | 279 | 1.6 | 11.3 | 0.20 | 0.25 | 0.25 | 86 | 1003.9 |
| 20260505034113 | 9 | 292 | 4.8 | 11.3 | 0.18 | 0.23 | 0.23 | 85 | 1003.8 |
| 20260505034039 | 10 | 280 | 4.8 | 11.3 | 0.18 | 0.23 | 0.23 | 85 | 1011.8 |
| 20260505033537 | 10 | 333 | 3.2 | 8.0 | 0.18 | 0.23 | 0.23 | 83 | 1012.4 |
| 20260505033512 | 10 | 350 | 3.2 | 8.0 | 0.18 | 0.23 | 0.23 | 82 | 1004.5 |
| 20260505033114 | 10 | 313 | 1.6 | 8.0 | 0.15 | 0.20 | 0.20 | 81 | 1003.8 |
| 20260505033034 | 10 | 325 | 1.6 | 8.0 | 0.15 | 0.20 | 0.20 | 81 | 1011.8 |
| 20260505032552 | 10 | 290 | 3.2 | 6.4 | 0.10 | 0.15 | 0.15 | 79 | 1003.7 |
| 20260505032532 | 11 | 304 | 3.2 | 6.4 | 0.08 | 0.13 | 0.13 | 78 | 1011.7 |
| 20260505032123 | 11 | 32 | 1.6 | 6.4 | 0.03 | 0.08 | 0.10 | 77 | 1003.4 |
| 20260505032030 | 11 | 346 | 1.6 | 6.4 | 0.03 | 0.08 | 0.08 | 77 | 1011.4 |
| 20260505031607 | 11 | 286 | 1.6 | 4.8 | 0.00 | 0.05 | 0.05 | 75 | 1003.3 |
| 20260505031526 | 11 | 253 | 1.6 | 4.8 | 0.00 | 0.05 | 0.05 | 75 | 1011.3 |
| 20260505031121 | 11 | 306 | 0.0 | 4.8 | 0.00 | 0.05 | 0.05 | 75 | 1003.1 |
| 20260505031053 | 11 | 306 | 1.6 | 4.8 | 0.00 | 0.05 | 0.05 | 74 | 1011.1 |
| 20260505030627 | 11 | 309 | 0.0 | 4.8 | 0.00 | 0.05 | 0.05 | 74 | 1003.0 |
| 20260505030552 | 11 | 309 | 1.6 | 4.8 | 0.00 | 0.05 | 0.05 | 74 | 1011.0 |
| 20260505030049 | 11 | 30 | 0.0 | 3.2 | 0.00 | 0.05 | 0.05 | 75 | 1010.8 |
| 20260505030020 | 11 | 30 | 0.0 | 1.6 | 0.00 | 0.05 | 0.05 | 75 | 1002.8 |
| 20260505025623 | 11 | 30 | 0.0 | 1.6 | 0.00 | 0.05 | 0.05 | 75 | 1002.6 |
| 20260505025544 | 11 | 30 | 0.0 | 1.6 | 0.00 | 0.05 | 0.05 | 75 | 1010.7 |
| 20260505025152 | 11 | 30 | 0.0 | 1.6 | 0.00 | 0.05 | 0.05 | 75 | 1002.6 |
| 20260505025113 | 11 | 30 | 0.0 | 1.6 | 0.00 | 0.05 | 0.05 | 74 | 1010.6 |
| 20260505024603 | 11 | 30 | 0.0 | 4.8 | 0.00 | 0.05 | 0.05 | 74 | 1002.4 |
| 20260505024546 | 11 | 30 | 0.0 | 4.8 | 0.00 | 0.05 | 0.05 | 74 | 1010.5 |
| 20260505024127 | 11 | 30 | 1.6 | 8.0 | 0.00 | 0.05 | 0.05 | 74 | 1002.2 |
| 20260505024041 | 11 | 30 | 3.2 | 8.0 | 0.00 | 0.05 | 0.05 | 74 | 1010.3 |
| 20260505023601 | 11 | 12 | 3.2 | 8.0 | 0.00 | 0.05 | 0.05 | 76 | 1002.3 |
| 20260505023536 | 11 | 17 | 4.8 | 8.0 | 0.00 | 0.05 | 0.05 | 78 | 1010.4 |
| 20260505023132 | 11 | 24 | 1.6 | 4.8 | 0.00 | 0.05 | 0.05 | 86 | 1002.2 |
| 20260505023031 | 11 | 15 | 1.6 | 4.8 | 0.00 | 0.05 | 0.05 | 86 | 1010.2 |
| 20260505022613 | 11 | 9 | 0.0 | 0.0 | 0.00 | 0.05 | 0.05 | 85 | 1001.7 |
| 20260505022556 | 11 | 9 | 0.0 | 0.0 | 0.00 | 0.05 | 0.05 | 84 | 1009.8 |
| 20260505022125 | 11 | 9 | 0.0 | 0.0 | 0.00 | 0.05 | 0.05 | 84 | 1001.8 |
| 20260505022055 | 11 | 9 | 0.0 | 0.0 | 0.00 | 0.05 | 0.05 | 84 | 1009.8 |
| 20260505021530 | 11 | 9 | 0.0 | 0.0 | 0.00 | 0.05 | 0.05 | 84 | 1009.8 |
| 20260505021506 | 11 | 9 | 0.0 | 0.0 | 0.00 | 0.05 | 0.05 | 84 | 1001.7 |
| 20260505021111 | 11 | 9 | 0.0 | 0.0 | 0.00 | 0.05 | 0.05 | 83 | 1001.6 |
| 20260505021036 | 11 | 9 | 0.0 | 0.0 | 0.00 | 0.05 | 0.05 | 83 | 1009.8 |
| 20260505020555 | 11 | 9 | 0.0 | 0.0 | 0.00 | 0.05 | 0.05 | 83 | 1001.7 |
| 20260505020534 | 11 | 9 | 0.0 | 0.0 | 0.00 | 0.05 | 0.05 | 83 | 1009.9 |
| 20260505020113 | 11 | 9 | 0.0 | 3.2 | 0.03 | 0.05 | 0.05 | 81 | 1001.9 |
| 20260505020031 | 11 | 9 | 0.0 | 3.2 | 0.03 | 0.05 | 0.05 | 81 | 1010.0 |
| 20260505015555 | 11 | 9 | 1.6 | 3.2 | 0.03 | 0.05 | 0.05 | 81 | 1010.0 |
| 20260505015518 | 11 | 9 | 0.0 | 1.6 | 0.03 | 0.05 | 0.05 | 80 | 1001.8 |
| 20260505015123 | 11 | 11 | 0.0 | 0.0 | 0.03 | 0.05 | 0.05 | 80 | 1001.8 |
| 20260505015051 | 11 | 11 | 0.0 | 0.0 | 0.03 | 0.05 | 0.05 | 80 | 1010.0 |
| 20260505014558 | 11 | 11 | 0.0 | 0.0 | 0.05 | 0.05 | 0.05 | 81 | 1001.5 |
| 20260505014528 | 11 | 11 | 0.0 | 0.0 | 0.05 | 0.05 | 0.05 | 81 | 1009.7 |
| 20260505014122 | 11 | 11 | 0.0 | 0.0 | 0.05 | 0.05 | 0.05 | 81 | 1001.3 |
| 20260505014053 | 11 | 11 | 0.0 | 0.0 | 0.05 | 0.05 | 0.05 | 81 | 1009.6 |
| 20260505013551 | 11 | 11 | 0.0 | 0.0 | 0.05 | 0.05 | 0.05 | 81 | 1009.5 |
| 20260505013523 | 11 | 11 | 0.0 | 0.0 | 0.05 | 0.05 | 0.05 | 81 | 1001.3 |
| 20260505013121 | 11 | 11 | 0.0 | 0.0 | 0.05 | 0.05 | 0.05 | 79 | 1001.3 |
| 20260505013044 | 11 | 11 | 0.0 | 0.0 | 0.05 | 0.05 | 0.05 | 79 | 1009.5 |
| 20260505012600 | 11 | 11 | 0.0 | 1.6 | 0.05 | 0.05 | 0.05 | 78 | 1001.4 |
| 20260505012542 | 11 | 11 | 0.0 | 1.6 | 0.05 | 0.05 | 0.05 | 78 | 1009.7 |
| 20260505012129 | 11 | 11 | 0.0 | 3.2 | 0.05 | 0.05 | 0.05 | 77 | 1001.3 |
| 20260505012036 | 11 | 11 | 0.0 | 3.2 | 0.05 | 0.05 | 0.05 | 76 | 1009.6 |
| 20260505011606 | 11 | 11 | 0.0 | 4.8 | 0.05 | 0.05 | 0.05 | 76 | 1001.2 |
| 20260505011530 | 11 | 11 | 1.6 | 4.8 | 0.05 | 0.05 | 0.05 | 75 | 1009.5 |
| 20260505011135 | 11 | 9 | 1.6 | 4.8 | 0.05 | 0.05 | 0.05 | 76 | 1001.2 |
| 20260505011118 | 12 | 9 | 3.2 | 4.8 | 0.05 | 0.05 | 0.05 | 76 | 1009.4 |
| 20260505010215 | 12 | 338 | 0.0 | 3.2 | 0.03 | 0.03 | 0.03 | 72 | 1009.4 |
| 20260505005552 | 12 | 305 | 0.0 | 3.2 | 0.03 | 0.03 | 0.03 | 69 | 1001.4 |
| 20260505005535 | 13 | 305 | 1.6 | 3.2 | 0.03 | 0.03 | 0.03 | 68 | 1009.6 |
| 20260505005128 | 13 | 305 | 0.0 | 3.2 | 0.03 | 0.03 | 0.03 | 65 | 1009.8 |
| 20260505004615 | 13 | 305 | 0.0 | 6.4 | 0.00 | 0.00 | 0.00 | 59 | 1002.0 |
| 20260505004552 | 13 | 305 | 0.0 | 6.4 | 0.00 | 0.00 | 0.00 | 59 | 1010.3 |
| 20260505004044 | 14 | 321 | 1.6 | 6.4 | 0.00 | 0.00 | 0.00 | 55 | 1002.1 |
| 20260505004027 | 15 | 313 | 3.2 | 6.4 | 0.00 | 0.00 | 0.00 | 55 | 1010.4 |
| 20260505003545 | 15 | 71 | 1.6 | 12.9 | 0.00 | 0.00 | 0.00 | 50 | 1010.2 |
| 20260505003515 | 15 | 71 | 1.6 | 12.9 | 0.00 | 0.00 | 0.00 | 50 | 1002.0 |
| 20260505003103 | 15 | 286 | 4.8 | 12.9 | 0.00 | 0.00 | 0.00 | 46 | 1001.8 |
| 20260505003042 | 16 | 273 | 6.4 | 12.9 | 0.00 | 0.00 | 0.00 | 45 | 1010.1 |
| 20260505002630 | 16 | 312 | 3.2 | 12.9 | 0.00 | 0.00 | 0.00 | 41 | 1001.3 |
| 20260505002536 | 16 | 307 | 3.2 | 12.9 | 0.00 | 0.00 | 0.00 | 41 | 1009.7 |
| 20260505002105 | 16 | 310 | 4.8 | 12.9 | 0.00 | 0.00 | 0.00 | 40 | 1001.2 |
| 20260505002032 | 16 | 355 | 4.8 | 12.9 | 0.00 | 0.00 | 0.00 | 40 | 1009.5 |
| 20260505001635 | 16 | 259 | 3.2 | 12.9 | 0.00 | 0.00 | 0.00 | 40 | 1001.1 |
| 20260505001540 | 16 | 296 | 4.8 | 12.9 | 0.00 | 0.00 | 0.00 | 39 | 1009.2 |
| 20260505001035 | 16 | 15 | 1.6 | 6.4 | 0.00 | 0.00 | 0.00 | 38 | 1009.1 |
| 20260505001017 | 16 | 19 | 1.6 | 8.0 | 0.00 | 0.00 | 0.00 | 37 | 1000.9 |
| 20260505000538 | 16 | 53 | 3.2 | 8.0 | 0.00 | 0.00 | 0.00 | 37 | 1009.0 |
| 20260505000138 | 16 | 35 | 3.2 | 6.4 | 0.00 | 0.00 | 0.00 | 37 | 1000.7 |
| 20260505000038 | 17 | 37 | 3.2 | 6.4 | 0.00 | 0.00 | 0.00 | 37 | 1008.9 |
| 20260504235615 | 17 | 34 | 0.0 | 6.4 | 0.00 | 0.00 | 0.00 | 37 | 1008.8 |
| 20260504235045 | 17 | 298 | 3.2 | 4.8 | 0.00 | 0.00 | 0.00 | 37 | 1009.0 |
| 20260504235015 | 16 | 309 | 1.6 | 4.8 | 0.00 | 0.00 | 0.00 | 37 | 1000.7 |
| 20260504234616 | 16 | 319 | 0.0 | 8.0 | 0.00 | 0.00 | 0.00 | 37 | 1000.5 |
| 20260504234126 | 16 | 326 | 0.0 | 8.0 | 0.00 | 0.00 | 0.00 | 36 | 1000.5 |
| 20260504234100 | 17 | 317 | 1.6 | 8.0 | 0.00 | 0.00 | 0.00 | 36 | 1008.8 |
| 20260504233642 | 17 | 288 | 1.6 | 6.4 | 0.00 | 0.00 | 0.00 | 37 | 1000.5 |
| 20260504233605 | 17 | 174 | 1.6 | 6.4 | 0.00 | 0.00 | 0.00 | 37 | 1008.8 |
| 20260504233111 | 17 | 300 | 1.6 | 6.4 | 0.00 | 0.00 | 0.00 | 36 | 1000.5 |
| 20260504233040 | 17 | 300 | 1.6 | 9.7 | 0.00 | 0.00 | 0.00 | 36 | 1008.8 |
| 20260504232633 | 17 | 38 | 3.2 | 9.7 | 0.00 | 0.00 | 0.00 | 36 | 1000.5 |
| 20260504232536 | 17 | 37 | 3.2 | 9.7 | 0.00 | 0.00 | 0.00 | 36 | 1008.8 |
| 20260504232110 | 17 | 336 | 1.6 | 14.5 | 0.00 | 0.00 | 0.00 | 36 | 1000.2 |
| 20260504232033 | 17 | 309 | 3.2 | 16.1 | 0.00 | 0.00 | 0.00 | 36 | 1008.6 |
| 20260504231530 | 17 | 360 | 6.4 | 17.7 | 0.00 | 0.00 | 0.00 | 35 | 1008.5 |
| 20260504231501 | 17 | 274 | 4.8 | 17.7 | 0.00 | 0.00 | 0.00 | 35 | 1000.2 |
| 20260504231108 | 17 | 313 | 6.4 | 17.7 | 0.00 | 0.00 | 0.00 | 34 | 1000.1 |
| 20260504231035 | 17 | 27 | 8.0 | 17.7 | 0.00 | 0.00 | 0.00 | 34 | 1008.5 |
| 20260504230642 | 17 | 296 | 6.4 | 14.5 | 0.00 | 0.00 | 0.00 | 33 | 999.9 |
| 20260504230606 | 18 | 17 | 4.8 | 14.5 | 0.00 | 0.00 | 0.00 | 33 | 1008.2 |
| 20260504230109 | 17 | 36 | 4.8 | 17.7 | 0.00 | 0.00 | 0.00 | 33 | 999.6 |
| 20260504230044 | 18 | 67 | 6.4 | 17.7 | 0.00 | 0.00 | 0.00 | 33 | 1008.0 |
| 20260504225632 | 17 | 37 | 6.4 | 14.5 | 0.00 | 0.00 | 0.00 | 32 | 999.5 |
| 20260504225539 | 18 | 65 | 8.0 | 19.3 | 0.00 | 0.00 | 0.00 | 32 | 1008.0 |
| 20260504225107 | 17 | 355 | 3.2 | 19.3 | 0.00 | 0.00 | 0.00 | 32 | 999.4 |
| 20260504225034 | 18 | 60 | 3.2 | 19.3 | 0.00 | 0.00 | 0.00 | 33 | 1007.8 |
| 20260504224642 | 17 | 59 | 3.2 | 17.7 | 0.00 | 0.00 | 0.00 | 32 | 999.5 |
| 20260504224600 | 18 | 61 | 4.8 | 17.7 | 0.00 | 0.00 | 0.00 | 32 | 1007.9 |
| 20260504224053 | 17 | 69 | 8.0 | 22.5 | 0.00 | 0.00 | 0.00 | 33 | 999.6 |
| 20260504224034 | 18 | 74 | 8.0 | 22.5 | 0.00 | 0.00 | 0.00 | 33 | 1008.0 |
| 20260504223621 | 17 | 51 | 6.4 | 22.5 | 0.00 | 0.00 | 0.00 | 33 | 999.5 |
| 20260504223533 | 18 | 74 | 6.4 | 22.5 | 0.00 | 0.00 | 0.00 | 33 | 1007.9 |
| 20260504223104 | 18 | 46 | 8.0 | 20.9 | 0.00 | 0.00 | 0.00 | 32 | 999.3 |
| 20260504223032 | 18 | 72 | 9.7 | 20.9 | 0.00 | 0.00 | 0.00 | 32 | 1007.9 |
| 20260504222624 | 17 | 88 | 6.4 | 20.9 | 0.00 | 0.00 | 0.00 | 32 | 999.4 |
| 20260504222529 | 18 | 355 | 6.4 | 20.9 | 0.00 | 0.00 | 0.00 | 32 | 1007.9 |
| 20260504222054 | 18 | 54 | 8.0 | 17.7 | 0.00 | 0.00 | 0.00 | 32 | 1007.8 |
| 20260504222028 | 17 | 41 | 8.0 | 17.7 | 0.00 | 0.00 | 0.00 | 32 | 999.3 |
| 20260504221549 | 18 | 355 | 6.4 | 17.7 | 0.00 | 0.00 | 0.00 | 32 | 1007.7 |
| 20260504221504 | 17 | 355 | 8.0 | 17.7 | 0.00 | 0.00 | 0.00 | 32 | 999.1 |
| 20260504221114 | 17 | 46 | 8.0 | 16.1 | 0.00 | 0.00 | 0.00 | 32 | 999.3 |
| 20260504221047 | 18 | 40 | 9.7 | 16.1 | 0.00 | 0.00 | 0.00 | 32 | 1007.8 |
| 20260504220545 | 17 | 298 | 6.4 | 17.7 | 0.00 | 0.00 | 0.00 | 31 | 999.2 |
| 20260504220527 | 18 | 67 | 6.4 | 17.7 | 0.00 | 0.00 | 0.00 | 31 | 1007.8 |
| 20260504220123 | 17 | 311 | 8.0 | 17.7 | 0.00 | 0.00 | 0.00 | 31 | 999.0 |
| 20260504220052 | 18 | 34 | 8.0 | 17.7 | 0.00 | 0.00 | 0.00 | 31 | 1007.5 |
| 20260504215547 | 18 | 360 | 8.0 | 19.3 | 0.00 | 0.00 | 0.00 | 30 | 1007.5 |
| 20260504215523 | 18 | 35 | 8.0 | 19.3 | 0.00 | 0.00 | 0.00 | 30 | 998.9 |
| 20260504215133 | 18 | 297 | 6.4 | 20.9 | 0.00 | 0.00 | 0.00 | 30 | 998.7 |
| 20260504215040 | 18 | 56 | 6.4 | 20.9 | 0.00 | 0.00 | 0.00 | 29 | 1007.2 |
| 20260504214601 | 19 | 15 | 8.0 | 20.9 | 0.00 | 0.00 | 0.00 | 28 | 998.6 |
| 20260504214534 | 19 | 28 | 8.0 | 20.9 | 0.00 | 0.00 | 0.00 | 27 | 1007.2 |
| 20260504214130 | 19 | 30 | 6.4 | 12.9 | 0.00 | 0.00 | 0.00 | 25 | 998.4 |
| 20260504214029 | 20 | 11 | 6.4 | 12.9 | 0.00 | 0.00 | 0.00 | 25 | 1007.1 |
| 20260504213614 | 19 | 37 | 1.6 | 14.5 | 0.00 | 0.00 | 0.00 | 25 | 998.4 |
| 20260504213600 | 20 | 44 | 3.2 | 14.5 | 0.00 | 0.00 | 0.00 | 25 | 1007.0 |
| 20260504213125 | 19 | 25 | 3.2 | 14.5 | 0.00 | 0.00 | 0.00 | 25 | 998.6 |
| 20260504213035 | 20 | 26 | 4.8 | 14.5 | 0.00 | 0.00 | 0.00 | 25 | 1007.2 |
| 20260504212605 | 19 | 23 | 3.2 | 9.7 | 0.00 | 0.00 | 0.00 | 25 | 998.8 |
| 20260504212531 | 20 | 22 | 3.2 | 9.7 | 0.00 | 0.00 | 0.00 | 25 | 1007.3 |
| 20260504212132 | 19 | 5 | 4.8 | 16.1 | 0.00 | 0.00 | 0.00 | 26 | 998.8 |
| 20260504212100 | 20 | 18 | 4.8 | 16.1 | 0.00 | 0.00 | 0.00 | 25 | 1007.4 |
| 20260504211535 | 20 | 44 | 6.4 | 16.1 | 0.00 | 0.00 | 0.00 | 24 | 1007.5 |
| 20260504211509 | 20 | 33 | 4.8 | 16.1 | 0.00 | 0.00 | 0.00 | 24 | 998.8 |
| 20260504211110 | 20 | 32 | 8.0 | 14.5 | 0.00 | 0.00 | 0.00 | 25 | 998.9 |
| 20260504211028 | 20 | 17 | 8.0 | 14.5 | 0.00 | 0.00 | 0.00 | 25 | 1007.6 |
| 20260504210551 | 20 | 16 | 6.4 | 17.7 | 0.00 | 0.00 | 0.00 | 25 | 1007.7 |
| 20260504210515 | 20 | 5 | 6.4 | 17.7 | 0.00 | 0.00 | 0.00 | 25 | 999.1 |
| 20260504210119 | 20 | 333 | 4.8 | 17.7 | 0.00 | 0.00 | 0.00 | 25 | 999.1 |
| 20260504210041 | 20 | 355 | 6.4 | 17.7 | 0.00 | 0.00 | 0.00 | 25 | 1007.7 |
| 20260504205557 | 20 | 24 | 3.2 | 14.5 | 0.00 | 0.00 | 0.00 | 26 | 999.2 |
| 20260504205535 | 20 | 33 | 4.8 | 14.5 | 0.00 | 0.00 | 0.00 | 25 | 1007.8 |
| 20260504205132 | 20 | 295 | 4.8 | 14.5 | 0.00 | 0.00 | 0.00 | 25 | 999.1 |
| 20260504205041 | 20 | 331 | 6.4 | 14.5 | 0.00 | 0.00 | 0.00 | 25 | 1007.7 |
| 20260504204536 | 20 | 281 | 6.4 | 14.5 | 0.00 | 0.00 | 0.00 | 26 | 1007.9 |
| 20260504204511 | 20 | 42 | 4.8 | 14.5 | 0.00 | 0.00 | 0.00 | 26 | 999.2 |
| 20260504204115 | 20 | 32 | 4.8 | 17.7 | 0.00 | 0.00 | 0.00 | 26 | 999.1 |
| 20260504204034 | 20 | 296 | 6.4 | 17.7 | 0.00 | 0.00 | 0.00 | 26 | 1007.8 |
| 20260504203649 | 20 | 343 | 6.4 | 17.7 | 0.00 | 0.00 | 0.00 | 25 | 999.1 |
| 20260504203604 | 20 | 31 | 8.0 | 17.7 | 0.00 | 0.00 | 0.00 | 25 | 1007.8 |
| 20260504203117 | 20 | 5 | 6.4 | 17.7 | 0.00 | 0.00 | 0.00 | 25 | 999.2 |
| 20260504203040 | 21 | 24 | 6.4 | 17.7 | 0.00 | 0.00 | 0.00 | 25 | 1007.8 |
| 20260504202537 | 21 | 25 | 8.0 | 17.7 | 0.00 | 0.00 | 0.00 | 25 | 1007.8 |
| 20260504202501 | 20 | 46 | 4.8 | 16.1 | 0.00 | 0.00 | 0.00 | 25 | 999.2 |
| 20260504202108 | 20 | 32 | 3.2 | 16.1 | 0.00 | 0.00 | 0.00 | 26 | 999.2 |
| 20260504202032 | 20 | 32 | 4.8 | 16.1 | 0.00 | 0.00 | 0.00 | 26 | 1007.8 |
| 20260504201638 | 19 | 45 | 3.2 | 16.1 | 0.00 | 0.00 | 0.00 | 27 | 999.3 |
| 20260504201557 | 20 | 360 | 4.8 | 16.1 | 0.00 | 0.00 | 0.00 | 27 | 1007.9 |
| 20260504201057 | 19 | 360 | 4.8 | 17.7 | 0.00 | 0.00 | 0.00 | 28 | 999.3 |
| 20260504201029 | 19 | 53 | 4.8 | 17.7 | 0.00 | 0.00 | 0.00 | 28 | 1007.9 |
| 20260504200631 | 18 | 41 | 9.7 | 17.7 | 0.00 | 0.00 | 0.00 | 28 | 999.3 |
| 20260504200553 | 19 | 36 | 9.7 | 17.7 | 0.00 | 0.00 | 0.00 | 28 | 1008.0 |
| 20260504200106 | 18 | 88 | 3.2 | 14.5 | 0.00 | 0.00 | 0.00 | 29 | 999.3 |
| 20260504200049 | 18 | 55 | 6.4 | 14.5 | 0.00 | 0.00 | 0.00 | 28 | 1008.0 |
| 20260504195615 | 18 | 360 | 4.8 | 14.5 | 0.00 | 0.00 | 0.00 | 29 | 999.4 |
| 20260504195556 | 18 | 309 | 4.8 | 14.5 | 0.00 | 0.00 | 0.00 | 30 | 1008.1 |
| 20260504195122 | 18 | 261 | 3.2 | 12.9 | 0.00 | 0.00 | 0.00 | 31 | 999.5 |
| 20260504195042 | 18 | 297 | 4.8 | 12.9 | 0.00 | 0.00 | 0.00 | 31 | 1008.1 |
| 20260504194557 | 17 | 317 | 4.8 | 14.5 | 0.00 | 0.00 | 0.00 | 31 | 999.4 |
| 20260504194539 | 18 | 360 | 4.8 | 14.5 | 0.00 | 0.00 | 0.00 | 31 | 1008.0 |
| 20260504194129 | 17 | 56 | 1.6 | 12.9 | 0.00 | 0.00 | 0.00 | 32 | 999.6 |
| 20260504194036 | 17 | 26 | 3.2 | 12.9 | 0.00 | 0.00 | 0.00 | 32 | 1008.3 |
| 20260504193605 | 17 | 47 | 3.2 | 16.1 | 0.00 | 0.00 | 0.00 | 32 | 999.8 |
| 20260504193531 | 17 | 360 | 4.8 | 16.1 | 0.00 | 0.00 | 0.00 | 32 | 1008.5 |
| 20260504193142 | 17 | 37 | 4.8 | 16.1 | 0.00 | 0.00 | 0.00 | 33 | 999.9 |
| 20260504193034 | 17 | 309 | 6.4 | 20.9 | 0.00 | 0.00 | 0.00 | 34 | 1008.6 |
| 20260504192651 | 17 | 46 | 1.6 | 24.1 | 0.00 | 0.00 | 0.00 | 33 | 1000.2 |
| 20260504192535 | 17 | 55 | 4.8 | 24.1 | 0.00 | 0.00 | 0.00 | 32 | 1008.8 |
| 20260504192056 | 18 | 160 | 14.5 | 24.1 | 0.00 | 0.00 | 0.00 | 34 | 1000.1 |
| 20260504192030 | 18 | 54 | 14.5 | 22.5 | 0.00 | 0.00 | 0.00 | 33 | 1008.9 |
| 20260504191626 | 19 | 78 | 1.6 | 12.9 | 0.00 | 0.00 | 0.00 | 27 | 1000.3 |
| 20260504191556 | 19 | 188 | 3.2 | 12.9 | 0.00 | 0.00 | 0.00 | 27 | 1008.8 |
| 20260504191034 | 20 | 183 | 4.8 | 12.9 | 0.00 | 0.00 | 0.00 | 25 | 1008.5 |
| 20260504191007 | 20 | 288 | 4.8 | 12.9 | 0.00 | 0.00 | 0.00 | 25 | 999.8 |
| 20260504190614 | 20 | 166 | 1.6 | 8.0 | 0.00 | 0.00 | 0.00 | 23 | 999.6 |
| 20260504190534 | 20 | 284 | 1.6 | 8.0 | 0.00 | 0.00 | 0.00 | 24 | 1008.4 |
| 20260504190149 | 20 | 134 | 3.2 | 8.0 | 0.00 | 0.00 | 0.00 | 24 | 999.4 |
| 20260504190044 | 20 | 100 | 1.6 | 8.0 | 0.00 | 0.00 | 0.00 | 24 | 1008.1 |
| 20260504185608 | 20 | 151 | 1.6 | 8.0 | 0.00 | 0.00 | 0.00 | 23 | 999.3 |
| 20260504185542 | 21 | 158 | 3.2 | 8.0 | 0.00 | 0.00 | 0.00 | 23 | 1008.0 |
| 20260504185146 | 20 | 119 | 1.6 | 8.0 | 0.00 | 0.00 | 0.00 | 22 | 999.3 |
| 20260504185051 | 21 | 150 | 1.6 | 8.0 | 0.00 | 0.00 | 0.00 | 21 | 1008.1 |
| 20260504184610 | 21 | 301 | 1.6 | 8.0 | 0.00 | 0.00 | 0.00 | 21 | 999.2 |
| 20260504184549 | 21 | 301 | 1.6 | 8.0 | 0.00 | 0.00 | 0.00 | 21 | 1008.0 |
| 20260504184130 | 21 | 38 | 1.6 | 6.4 | 0.00 | 0.00 | 0.00 | 22 | 999.2 |
| 20260504184027 | 21 | 355 | 3.2 | 9.7 | 0.00 | 0.00 | 0.00 | 22 | 1007.9 |
| 20260504183607 | 21 | 65 | 1.6 | 9.7 | 0.00 | 0.00 | 0.00 | 22 | 999.1 |
| 20260504183549 | 21 | 65 | 1.6 | 9.7 | 0.00 | 0.00 | 0.00 | 22 | 1007.9 |
| 20260504183134 | 21 | 20 | 1.6 | 8.0 | 0.00 | 0.00 | 0.00 | 21 | 999.2 |
| 20260504183043 | 21 | 5 | 3.2 | 8.0 | 0.00 | 0.00 | 0.00 | 21 | 1007.9 |
| 20260504182610 | 21 | 46 | 0.0 | 8.0 | 0.00 | 0.00 | 0.00 | 22 | 999.2 |
| 20260504182537 | 21 | 46 | 1.6 | 8.0 | 0.00 | 0.00 | 0.00 | 22 | 1007.9 |
| 20260504182034 | 21 | 24 | 3.2 | 8.0 | 0.00 | 0.00 | 0.00 | 22 | 1007.9 |
| 20260504182006 | 21 | 24 | 3.2 | 8.0 | 0.00 | 0.00 | 0.00 | 22 | 999.2 |
| 20260504181610 | 21 | 18 | 1.6 | 8.0 | 0.00 | 0.00 | 0.00 | 23 | 999.1 |
| 20260504181532 | 21 | 40 | 1.6 | 8.0 | 0.00 | 0.00 | 0.00 | 23 | 1007.9 |
| 20260504181145 | 21 | 252 | 0.0 | 8.0 | 0.00 | 0.00 | 0.00 | 22 | 999.2 |
| 20260504181101 | 21 | 288 | 1.6 | 8.0 | 0.00 | 0.00 | 0.00 | 22 | 1007.9 |
| 20260504180601 | 21 | 306 | 3.2 | 6.4 | 0.00 | 0.00 | 0.00 | 22 | 999.2 |
| 20260504180538 | 21 | 311 | 3.2 | 6.4 | 0.00 | 0.00 | 0.00 | 21 | 1008.0 |
| 20260504180127 | 21 | 32 | 1.6 | 11.3 | 0.00 | 0.00 | 0.00 | 20 | 999.3 |
| 20260504180035 | 21 | 30 | 3.2 | 11.3 | 0.00 | 0.00 | 0.00 | 20 | 1008.0 |
| 20260504175559 | 22 | 19 | 1.6 | 9.7 | 0.00 | 0.00 | 0.00 | 21 | 1008.0 |
| 20260504175516 | 21 | 19 | 1.6 | 9.7 | 0.00 | 0.00 | 0.00 | 21 | 999.3 |
| 20260504175112 | 21 | 40 | 3.2 | 11.3 | 0.00 | 0.00 | 0.00 | 23 | 999.3 |
| 20260504175034 | 22 | 292 | 4.8 | 11.3 | 0.00 | 0.00 | 0.00 | 22 | 1008.0 |
| 20260504174529 | 22 | 305 | 4.8 | 14.5 | 0.00 | 0.00 | 0.00 | 21 | 1008.1 |
| 20260504174504 | 22 | 25 | 3.2 | 14.5 | 0.00 | 0.00 | 0.00 | 21 | 999.4 |
| 20260504174114 | 22 | 278 | 3.2 | 14.5 | 0.00 | 0.00 | 0.00 | 21 | 999.5 |
| 20260504174049 | 22 | 308 | 4.8 | 14.5 | 0.00 | 0.00 | 0.00 | 20 | 1008.2 |
| 20260504173545 | 22 | 26 | 4.8 | 9.7 | 0.00 | 0.00 | 0.00 | 21 | 1008.3 |
| 20260504173505 | 22 | 344 | 4.8 | 9.7 | 0.00 | 0.00 | 0.00 | 21 | 999.7 |
| 20260504173117 | 22 | 39 | 1.6 | 9.7 | 0.00 | 0.00 | 0.00 | 21 | 999.8 |
| 20260504173039 | 22 | 28 | 3.2 | 9.7 | 0.00 | 0.00 | 0.00 | 20 | 1008.4 |
| 20260504172535 | 22 | 28 | 3.2 | 12.9 | 0.00 | 0.00 | 0.00 | 20 | 1008.5 |
| 20260504172506 | 22 | 38 | 1.6 | 12.9 | 0.00 | 0.00 | 0.00 | 20 | 999.9 |
| 20260504172114 | 22 | 39 | 4.8 | 12.9 | 0.00 | 0.00 | 0.00 | 19 | 999.9 |
| 20260504172031 | 23 | 31 | 6.4 | 12.9 | 0.00 | 0.00 | 0.00 | 20 | 1008.6 |
| 20260504171546 | 22 | 331 | 1.6 | 6.4 | 0.00 | 0.00 | 0.00 | 21 | 1000.0 |
| 20260504171528 | 22 | 355 | 3.2 | 6.4 | 0.00 | 0.00 | 0.00 | 21 | 1008.6 |
| 20260504171116 | 22 | 17 | 1.6 | 9.7 | 0.00 | 0.00 | 0.00 | 21 | 1000.1 |
| 20260504171052 | 22 | 258 | 1.6 | 9.7 | 0.00 | 0.00 | 0.00 | 22 | 1008.6 |
| 20260504170551 | 22 | 340 | 3.2 | 12.9 | 0.00 | 0.00 | 0.00 | 20 | 1008.6 |
| 20260504170505 | 22 | 313 | 3.2 | 12.9 | 0.00 | 0.00 | 0.00 | 20 | 1000.0 |
| 20260504170114 | 22 | 300 | 4.8 | 12.9 | 0.00 | 0.00 | 0.00 | 21 | 1000.1 |
| 20260504160118 | 20 | 292 | 1.6 | 6.4 | 0.00 | 0.00 | 0.00 | 26 | 1000.8 |
| 20260504151146 | 18 | 204 | 0.0 | 3.2 | 0.00 | 0.00 | 0.00 | 27 | 1001.2 |
| 20260504151053 | 18 | 200 | 1.6 | 3.2 | 0.00 | 0.00 | 0.00 | 27 | 1009.5 |
| 20260504150652 | 17 | 225 | 0.0 | 4.8 | 0.00 | 0.00 | 0.00 | 27 | 1001.3 |
| 20260504150548 | 18 | 238 | 0.0 | 4.8 | 0.00 | 0.00 | 0.00 | 28 | 1009.5 |
| 20260504150108 | 17 | 207 | 1.6 | 4.8 | 0.00 | 0.00 | 0.00 | 28 | 1001.3 |